SCP
0 0 0 0 0 -0 -0 0 0 0 0 0 0 0 -0 -0 -0 0 0 0 0 0 0 0 0 0 0 0 0 0 0 0 0 0 0 0 0 0 0 0 0 0 0 0 0 0 0 0 0 0 0 0 0 0
0 0 0 0 0 -0 0 0 -0 0 0 0 0 0 -0 0 -0 0 0 0 0 0 0 0 0 0 0 0 0 0 0 0 0 0 0 0 0 0 0 0 0 0 -0 0 0 0 0 0 0 0 0 0 0 0
0 0 0 0 0 0 0 0 -0 0 0 0 0 0 0 0 0 0 0 0 0 0 0 0 0 0 0 0 0 0 0 0 0 0 0 0 0 0 0 0 0 0 0 0 0 0 0 0 0 0 0 0 -0 -0
0 0 0 0 0 0 0 0 -0 0 0 0 0 -0 0 0 0 0 0 0 0 0 0 0 0 0 0 0 0 0 0 0 0 0 0 0 0 0 0 0 0 0 0 0 0 0 0 0 0 0 0 0 0 0
0 0 0 0 0 0 0 0 0 0 0 -0 -0 -0 0 0 0 0 0 0 0 0 0 0 0 0 0 0 0 0 0 0 0 0 0 0 0 0 0 0 0 0 0 0 0 0 0 0 0 0 0 0 0 0
0 0 0 0 0 0 0 0 0 0 -0 -0 0 0 0 0 0 0 0 0 0 0 0 0 0 0 0 0 0 0 0 0 0 0 0 0 0 0 0 0 0 0 0 0 0 0 0 0 0 0 0 0 0 0
0 0 0 0 0 0 0 0 -0 0 0 0 0 0 0 0 0 0 0 0 0 0 0 0 -0 -0 0 0 0 0 0 0 0 0 0 0 0 0 0 0 0 0 0 0 0 0 0 0 0 0 0 0 0 0
0 0 0 0 0 0 0 0 0 0 0 0 0 0 0 0 0 0 0 0 0 0 0 0 0 0 0 0 0 0 0 0 0 0 0 0 0 0 0 0 0 0 0 0 0 0 0 0 0 0 0 0 0 0
0 0 0 0 0 0 0 0 0 0 0 0 0 0 0 0 0 0 0 0 0 0 0 0 0 0 0 0 0 0 0 0 0 0 0 0 0 0 0 0 0 0 0 0 0 0 0 0 0 0 0 0 0 0
0 0 0 0 0 0 0 0 0 0 -0 0 0 0 0 0 0 0 0 0 0 0 0 0 0 0 0 0 0 0 0 0 0 0 0 0 0 0 0 0 0 0 0 0 0 0 0 0 0 0 0 0 0 0
0 0 0 0 0 0 0 -0 -0 -0 -0 0 0 0 0 0 0 0 0 0 0 0 0 0 0 0 0 0 0 0 0 -0 -0 -0 0 0 0 -0 -0 0 0 0 0 0 0 0 0 0 0 0 0 0 0 -0
-0 -0 0 0 0 0 0 -0 -0 -0 0 0 0 0 0 0 0 0 0 0 0 0 0 0 0 0 0 0 0 0 0 0 0 0 0 0 0 0 0 0 0 0 0 0 0 0 0 0 0 0 0 0 0 0
0 0 0 0 0 0 0 -0 -0 -0 0 0 0 0 0 0 0 0 0 0 0 0 0 0 0 0 0 0 0 0 0 0 0 0 0 0 0 0 -0 0 0 0 0 0 0 0 0 0 0 0 0 0 0 0
-0 -0 0 0 -0 0 0 -0 -0 0 0 0 0 0 0 0 0 0 0 0 0 0 0 0 0 0 0 0 0 0 0 0 0 0 0 0 0 0 0 0 0 0 0 0 0 0 0 0 0 0 0 0 0 -0
-0 0 0 -0 0 0 -0 -0 -0 0 0 0 0 0 0 0 0 0 0 0 0 0 0 0 0 0 0 0 0 0 0 0 0 0 0 0 0 0 0 0 0 0 0 0 0 0 0 0 0 0 0 0 0 0
0 0 0 -0 0 0 -0 -0 -0 0 0 0 0 0 0 0 0 0 0 0 0 0 0 0 0 0 0 0 0 0 0 0 0 0 0 0 0 0 0 0 0 0 0 0 0 0 0 0 0 0 0 0 0 0
0 0 0 -0 -0 0 -0 0 -0 0 0 0 0 0 0 0 0 0 0 0 0 0 0 0 0 0 0 0 0 0 0 0 0 0 0 0 0 0 0 0 0 0 0 0 0 0 0 0 0 0 0 0 0 0
0 0 0 -0 -0 -0 0 -0 -0 0 0 0 0 0 0 0 0 0 0 0 0 0 0 0 0 0 0 0 0 0 0 0 0 0 0 0 0 0 0 0 0 0 0 0 0 0 0 0 0 0 0 0 0 -0
0 0 0 -0 0 0 0 -0 0 0 -0 0 0 0 0 0 0 0 0 0 0 0 0 0 0 0 0 0 0 0 0 0 0 0 0 0 0 0 0 0 0 0 0 0 0 0 0 0 0 0 0 0 0 0
0 0 -0 -0 -0 0 0 -0 0 0 0 0 -0 0 0 0 0 0 0 0 0 0 0 0 0 0 0 0 0 0 0 0 0 0 0 0 0 0 0 0 0 0 0 0 0 0 0 0 0 0 0 0 0 0
0 0 0 0 0 0 0 0 -0 -0 -0 0 0 0 0 0 0 0 0 0 0 0 0 0 0 0 0 0 0 0 0 0 0 0 0 0 0 0 0 0 0 0 0 0 0 -0 0 0 0 0 0 0 0 -0
0 -0 0 0 0 0 0 -0 -0 -0 -0 0 0 0 0 0 0 0 0 0 0 0 0 0 0 0 0 0 0 0 0 0 0 0 0 0 0 0 0 0 0 0 0 0 0 0 0 0 0 0 0 0 0 0
-0 0 0 0 0 0 -0 0 0 0 -0 0 0 0 0 0 0 0 0 0 0 0 0 0 0 0 0 0 0 0 0 0 0 0 0 0 0 0 0 0 0 0 0 0 0 0 0 0 0 0 0 0 0 0
0 0 0 0 0 0 0 0 -0 -0 0 0 0 0 0 0 0 0 0 0 0 0 0 0 0 0 0 0 0 0 0 0 0 0 0 0 0 0 0 0 0 0 0 0 0 0 0 -0 0 0 0 0 0 0
0 0 0 0 0 0 0 -0 0 0 0 0 0 0 0 0 0 0 0 0 0 0 0 0 0 0 0 0 0 0 0 0 0 0 0 0 0 0 0 0 0 0 0 0 0 0 0 0 0 -0 0 0 0 0
0 0 0 0 0 0 0 0 0 0 0 0 0 0 0 0 0 0 0 0 0 0 0 0 0 0 0 0 0 0 0 0 0 0 0 0 0 0 0 0 0 0 0 0 0 0 0 0 -0 0 0 0 0 -0
0 0 0 0 0 0 0 0 0 0 0 0 0 0 0 0 0 0 0 0 0 0 0 0 0 0 0 0 0 0 0 0 0 0 0 0 0 0 0 0 0 0 0 0 0 0 0 0 0 0 0 -0 0 0
-0 0 -0 0 0 0 -0 0 0 0 0 0 0 0 0 0 0 0 0 0 0 0 0 0 0 0 0 0 0 0 0 0 0 0 0 0 0 0 0 0 0 0 0 0 0 0 0 0 0 0 0 0 0 0
-0 0 0 0 0 0 0 0 0 0 0 0 0 0 0 0 0 0 0 0 0 0 0 0 0 0 0 0 0 0 0 0 0 0 0 0 0 0 0 0 0 0 0 0 0 0 0 0 0 0 0 0 0 0
0 0 0 0 0 0 0 0 0 0 0 0 0 0 0 0 0 0 0 0 0 0 0 0 0 0 0 0 0 0 0 0 0 0 0 0 0 0 0 0 0 0 0 0 0 0 0 0 0 0 0 0 0 0
0 0 0 0 0 0 0 0 0 0 0 0 0 0 0 0 0 0 0 0 0 0 0 0 0 0 0 0 0 0 0 0 0 0 0 0 0 0 0 0 0 0 0 0 0 0 0 0 0 0 0 0 0 0
0 0 0 0 0 0 0 0 0 0 0 0 0 0 0 0 0 0 0 0 0 0 0 0 0 0 0 0 0 0 0 0 0 0 0 0 0 0 0 0 -0 0 0 0 0 0 0 0 0 0 0 0 0 0
0 0 0 0 0 0 0 0 0 0 0 0 0 0 0 0 0 0 0 0 -0 0 0 0 0 0 0 0 0 0 0 0 0 0 0 0 0 0 0 0 0 0 0 0 0 0 0 0 0 0 0 0 0 0
Wind_Speed_500mb
47 38 21 22 21 20 19 23 22 20 18 13 11 4 3 6 5 4 7 9 2 4 9 11 11 12 12 9 7 5 5 4 7 6 5 5 5 7 5 7 7 7 7 4 5 4 12 12 2 5 5 2 16 24
42 34 20 21 19 19 16 21 20 16 15 13 11 8 4 7 10 11 11 11 10 9 9 21 23 21 21 15 19 14 5 9 11 8 1 5 3 3 8 4 1 3 11 7 13 10 4 14 10 11 13 19 20 28
38 20 20 23 18 17 14 19 19 14 14 11 12 11 9 9 12 13 12 12 14 13 20 31 42 35 33 31 22 16 11 14 13 9 14 5 4 7 6 9 5 4 8 4 4 2 16 16 12 14 17 21 20 22
31 23 22 19 18 15 14 17 17 14 13 12 12 12 11 11 12 11 10 13 7 6 6 8 11 15 28 35 25 34 17 25 19 18 8 5 5 13 7 5 8 9 15 8 8 17 16 29 31 18 11 12 22 31
28 25 18 19 19 14 14 14 14 15 14 14 14 13 12 13 13 13 13 12 6 6 6 20 34 30 27 39 34 31 27 30 32 13 5 7 12 9 4 5 5 21 13 9 11 20 13 15 19 30 26 31 37 45
30 28 20 20 18 15 15 11 12 16 17 15 14 15 14 15 13 9 5 3 4 8 10 7 15 25 17 34 47 45 38 35 26 15 11 11 13 21 8 8 15 34 37 36 15 17 18 21 23 30 40 41 40 47
28 30 24 19 16 17 12 9 11 15 16 12 12 15 16 17 13 4 2 3 7 7 6 12 19 11 26 12 39 32 31 21 25 23 16 13 13 22 4 7 10 29 32 29 27 29 26 28 24 25 28 35 42 51
28 34 25 21 20 16 10 8 11 13 11 7 11 15 18 11 4 8 1 8 11 10 3 3 8 13 7 4 6 15 11 8 15 17 10 8 12 3 6 22 23 18 28 35 31 31 29 25 28 26 30 38 46 51
32 37 30 23 22 14 9 8 9 11 7 8 11 11 9 10 3 7 13 7 1 2 2 2 3 6 16 3 4 6 10 4 12 4 10 11 3 7 15 23 18 28 23 25 21 29 32 35 29 26 27 36 39 37
34 40 28 25 22 13 10 9 9 10 6 7 5 4 5 10 13 8 5 4 3 4 3 6 6 5 13 6 6 5 7 1 3 4 5 4 3 24 33 20 25 22 23 25 28 22 25 30 24 19 23 23 32 34
41 31 25 26 19 13 10 12 15 12 6 1 2 4 9 8 4 3 5 3 1 3 7 8 11 6 7 3 4 5 2 3 4 2 3 3 4 8 19 38 23 22 26 28 27 22 21 19 22 18 19 24 30 33
30 25 27 23 16 9 10 19 18 13 7 6 1 6 2 2 3 3 2 0 4 5 7 7 4 7 2 3 6 6 2 3 3 4 1 4 7 12 8 10 16 10 15 22 24 24 22 19 22 17 19 23 26 31
30 27 22 16 10 5 13 11 10 19 12 1 3 3 3 1 8 4 4 5 4 5 10 9 1 3 4 2 6 3 3 6 1 5 3 8 21 15 11 8 21 21 19 23 22 19 18 19 22 20 19 20 18 23
27 18 12 9 9 8 5 9 14 14 6 5 5 3 4 3 7 9 9 7 7 15 16 11 2 5 3 3 2 2 4 3 2 5 6 6 16 8 11 14 24 24 21 17 18 19 20 28 21 20 21 18 11 12
16 8 5 6 10 16 13 10 8 6 1 5 6 6 8 12 14 20 20 17 18 20 15 7 5 5 2 3 2 4 3 4 7 7 7 19 22 25 19 21 24 15 16 19 23 22 25 27 23 29 25 20 10 5
13 17 13 10 8 8 8 6 7 5 3 5 9 4 5 3 9 4 3 11 9 4 14 2 6 3 3 6 4 4 2 5 7 7 18 21 21 21 22 26 24 17 19 15 18 19 21 23 22 21 19 19 17 10
15 8 5 3 5 5 9 7 5 5 5 7 8 11 8 12 11 8 5 4 9 4 3 5 4 2 5 2 3 5 7 8 23 18 15 16 15 16 18 13 24 30 29 25 28 28 28 25 20 19 11 14 20 17
5 1 6 10 6 3 10 6 4 6 9 12 9 5 9 10 10 14 7 7 5 2 5 5 7 4 5 4 5 7 11 12 12 12 10 16 19 7 10 28 26 20 18 17 18 22 22 19 22 17 10 10 13 14
10 11 8 5 3 6 4 6 9 7 12 10 10 14 12 11 13 12 8 12 13 8 8 8 5 5 7 13 14 16 13 13 9 10 8 15 16 6 14 10 17 21 23 20 12 11 16 9 9 11 6 10 6 6
9 2 5 1 5 5 6 7 9 9 9 9 10 11 10 10 14 22 23 20 15 6 6 5 11 13 16 16 17 17 9 9 8 13 11 12 11 4 8 9 15 17 17 17 19 9 8 11 12 15 16 10 12 12
1 3 9 7 7 13 8 7 11 9 7 11 16 20 10 21 23 27 33 23 15 9 9 15 18 17 18 13 16 14 13 15 11 8 10 17 14 11 11 6 10 16 11 17 8 14 6 16 16 12 10 17 20 10
6 7 10 3 4 6 12 16 9 5 9 12 13 21 8 10 19 26 21 15 11 23 19 14 12 19 26 27 21 14 13 15 17 9 7 15 18 17 9 3 5 13 13 12 9 13 12 12 9 16 14 13 11 11
10 8 5 6 6 9 9 12 10 10 8 6 12 9 7 8 9 13 9 12 14 23 27 21 15 18 24 21 23 21 17 14 15 18 13 16 14 13 10 7 9 12 8 10 10 11 10 13 10 10 9 8 11 15
7 6 6 7 12 10 6 9 11 7 5 6 8 7 7 12 11 7 6 10 22 17 25 29 24 20 17 16 23 20 15 13 11 14 20 23 22 22 16 11 7 7 4 7 8 5 7 8 7 6 8 11 12 9
6 8 8 10 10 8 6 6 6 2 7 5 2 5 3 8 4 5 7 10 19 20 24 29 27 21 16 24 19 10 7 12 17 11 14 27 27 29 23 14 9 8 8 3 8 8 18 13 10 14 15 12 7 5
4 9 15 9 7 8 7 4 6 10 5 3 4 8 7 1 3 9 7 13 21 22 29 34 27 21 25 16 15 11 19 15 5 6 13 21 23 23 24 19 16 16 10 11 17 14 11 10 8 11 11 15 12 6
6 11 15 17 13 10 8 11 3 8 3 4 2 5 6 4 7 7 7 14 15 19 23 21 20 17 24 24 12 19 21 12 8 19 20 13 10 10 14 17 20 17 16 14 6 8 11 9 14 7 11 13 9 4
17 11 11 8 9 17 9 5 1 4 5 9 6 4 4 7 7 7 12 12 13 17 16 19 15 14 14 18 21 27 24 21 21 19 19 16 14 14 10 13 17 11 9 12 7 12 16 11 10 10 7 3 4 5
16 18 11 13 12 10 8 10 14 15 21 22 14 7 11 15 37 44 31 23 21 16 22 24 28 23 20 20 17 15 15 23 26 30 29 24 20 18 20 17 17 11 11 10 9 13 11 5 8 9 3 2 2 4
14 24 12 9 7 8 5 6 5 11 19 16 18 16 15 15 9 9 14 27 27 22 20 18 20 27 26 24 25 27 29 28 20 17 28 31 23 24 20 20 21 18 20 23 19 15 11 10 7 7 7 6 2 5
7 9 14 15 11 13 11 4 6 9 23 20 23 22 18 8 10 20 29 18 36 26 24 24 23 27 23 28 30 28 32 34 32 24 27 25 26 25 24 21 22 19 14 10 7 8 10 8 6 4 4 4 5 6
17 22 17 9 8 5 3 5 4 6 9 11 5 6 6 7 5 14 13 14 48 43 31 27 26 24 27 32 29 23 19 16 20 12 20 35 31 26 25 23 18 15 13 13 7 7 5 5 4 10 11 7 4 5
15 11 6 9 6 1 4 8 3 3 6 4 5 6 5 2 5 4 11 16 19 36 38 35 24 5 27 40 40 36 35 24 17 19 19 15 11 20 22 26 18 14 10 13 15 6 3 2 5 5 3 2 5 6
Wind_Direction_500mb
319 319 284 294 305 305 323 328 333 342 352 352 353 325 258 313 335 313 344 3 296 234 215 213 172 175 181 184 149 170 60 353 50 75 123 207 133 223 80 230 174 163 133 208 90 167 260 191 270 197 211 249 313 316
315 311 278 294 297 303 319 325 328 334 346 354 339 340 321 298 302 297 295 312 319 276 243 220 231 249 267 275 208 189 196 163 160 96 147 104 97 127 158 267 113 235 183 187 179 218 172 174 231 261 289 301 319 317
314 285 276 287 289 300 300 320 323 330 337 339 340 339 346 326 302 301 300 291 304 285 274 253 247 257 257 251 248 194 188 185 181 150 151 158 159 129 159 243 166 262 173 199 36 266 207 225 236 250 270 284 314 326
306 265 279 279 281 285 291 314 320 330 315 321 320 330 343 335 321 318 307 291 295 323 309 277 272 256 243 240 232 213 218 183 177 169 129 141 170 191 197 196 166 194 150 184 257 268 249 255 256 233 255 289 305 318
290 258 270 273 278 273 276 302 318 323 316 301 309 310 318 319 321 322 311 256 265 325 284 287 285 272 238 221 218 218 207 187 173 160 148 200 170 142 121 110 247 188 185 166 224 224 213 260 273 237 264 283 291 302
274 247 254 261 270 250 266 295 312 316 315 303 296 301 305 306 316 328 246 228 270 326 308 317 317 304 281 246 224 218 200 189 192 182 195 218 191 167 153 196 239 211 216 232 234 250 263 283 289 272 271 285 291 290
259 239 237 257 248 237 260 284 303 319 317 306 297 297 307 307 313 309 318 236 250 307 277 311 321 336 345 212 186 198 197 221 212 203 205 184 188 188 112 207 200 214 223 225 241 248 271 282 288 305 306 307 304 299
238 230 225 240 224 236 253 277 302 328 322 319 302 313 320 326 76 114 52 338 259 252 276 327 280 336 24 84 71 16 339 353 10 338 345 124 116 179 237 249 247 227 215 227 235 244 260 286 290 302 312 311 306 305
239 221 216 224 212 224 243 264 300 332 320 316 327 340 117 56 52 337 350 355 142 235 90 1 297 286 354 75 90 56 35 32 348 233 216 168 143 212 237 244 250 217 218 239 245 244 255 264 284 299 309 308 306 309
220 202 202 208 209 215 236 263 290 317 308 328 358 47 38 353 5 12 50 69 65 105 209 223 254 274 341 358 68 69 38 65 323 273 276 213 258 270 284 291 307 227 242 240 233 255 259 267 279 295 301 309 315 311
188 179 191 193 206 216 243 271 283 285 251 194 77 37 319 358 19 44 43 50 49 328 210 239 241 265 0 21 103 43 79 281 325 321 114 265 241 303 302 267 292 263 268 254 253 273 278 284 281 285 307 317 314 314
170 178 181 188 206 227 277 288 271 233 178 152 37 307 344 4 57 7 31 179 207 244 199 200 255 240 193 112 114 190 168 207 290 170 329 286 253 322 25 42 356 313 291 263 250 275 273 267 268 277 306 314 312 324
164 168 176 192 206 262 299 283 207 169 182 173 170 207 191 140 36 109 282 276 289 228 207 190 325 203 138 136 93 159 224 248 35 45 259 227 278 280 267 300 318 299 267 262 269 271 262 281 268 272 295 297 309 331
146 158 184 211 237 254 203 142 147 159 180 177 187 304 211 219 233 198 201 208 249 253 263 268 214 169 137 112 132 265 256 18 41 348 253 248 250 260 265 279 299 297 251 265 283 277 266 275 264 269 275 268 286 358
133 146 121 93 154 156 158 150 174 210 299 216 225 218 211 241 267 270 265 272 286 281 245 157 134 164 99 98 29 34 307 273 195 232 239 271 277 268 275 312 321 283 280 306 298 268 279 272 269 270 266 244 217 104
131 120 98 109 134 168 186 205 235 221 248 246 237 267 207 220 290 291 277 267 334 330 165 191 123 139 172 146 176 247 341 247 256 231 284 286 272 279 277 306 310 294 291 282 297 274 279 260 263 268 262 236 203 189
138 133 120 71 10 260 231 227 172 197 234 239 245 231 261 274 269 263 262 24 8 76 147 139 81 254 127 93 286 181 205 229 277 271 269 272 274 296 293 315 352 338 307 262 262 265 276 260 229 226 239 225 210 197
100 68 306 323 340 101 154 183 233 229 247 245 249 247 221 246 269 242 246 224 293 328 176 184 129 99 193 211 252 247 244 273 286 275 270 265 249 246 18 327 326 321 302 295 281 289 276 268 229 217 186 187 209 200
327 317 304 306 199 153 167 236 226 249 240 243 249 249 247 259 251 243 259 239 264 299 171 162 121 195 232 218 226 221 242 244 283 233 257 227 230 226 334 335 331 323 309 322 318 292 262 262 227 150 188 183 186 199
342 24 48 359 183 210 232 221 225 256 249 233 237 243 235 247 257 251 257 259 268 218 180 183 210 221 222 246 238 236 244 232 223 200 231 218 186 236 290 309 351 342 315 323 344 270 228 186 185 185 186 140 109 132
244 271 322 331 209 228 261 229 235 239 242 228 250 234 250 251 244 241 251 260 231 215 220 232 240 248 229 236 220 228 259 264 249 252 253 209 203 226 252 323 347 358 351 1 6 1 112 80 85 121 133 136 135 113
264 296 321 266 249 239 254 222 227 223 227 248 217 199 222 217 229 243 252 214 224 225 210 222 225 230 226 228 234 241 261 248 239 249 200 191 197 218 214 24 2 37 40 44 98 82 37 34 97 132 148 149 140 140
275 285 282 245 247 231 254 216 229 214 190 215 171 184 234 223 222 191 233 232 236 238 223 201 203 226 245 247 237 232 242 251 255 237 208 205 207 183 168 122 65 32 65 97 76 35 68 80 98 138 120 120 135 141
251 261 245 241 226 261 243 225 219 234 228 185 166 218 220 213 178 210 246 244 246 240 216 208 220 235 250 234 209 213 232 266 248 193 222 209 188 168 158 137 101 84 85 126 95 54 140 39 104 155 167 194 168 145
261 230 231 259 240 250 238 250 219 223 248 199 201 315 267 172 164 237 233 260 221 221 209 205 217 239 242 186 184 199 229 210 197 186 217 199 178 166 164 150 134 115 80 91 160 127 128 105 112 108 118 143 159 159
217 218 194 224 242 195 233 268 202 218 207 126 358 342 345 69 246 253 234 231 211 219 210 212 226 202 181 190 183 186 183 181 220 78 147 193 214 193 183 176 168 157 133 90 109 119 142 143 95 122 110 90 95 184
246 261 233 237 258 279 291 274 256 99 109 103 0 27 9 320 255 266 234 206 223 216 204 201 201 191 180 169 140 133 147 130 95 97 96 146 197 262 249 209 181 166 154 156 116 140 118 140 136 132 137 106 107 146
232 251 203 223 248 249 228 223 188 127 126 156 136 90 270 227 246 351 297 268 210 184 158 150 149 136 136 141 124 136 146 154 143 138 142 131 101 92 171 182 172 183 173 167 161 161 140 133 155 137 151 204 286 306
228 224 242 265 261 262 234 212 187 183 174 173 167 182 231 243 254 250 285 206 191 182 166 159 162 156 147 147 144 160 178 183 184 187 190 187 177 151 130 127 114 136 192 179 160 153 160 153 119 149 155 311 35 22
244 229 222 244 209 230 262 221 105 185 191 222 238 241 221 254 277 234 216 210 210 199 188 188 185 184 183 182 185 195 209 221 233 237 211 205 196 170 146 135 132 114 105 106 118 130 151 187 234 278 262 227 242 5
236 180 211 211 224 250 263 244 197 257 266 265 244 236 212 170 175 188 191 186 226 214 194 198 204 203 207 206 208 208 216 222 227 242 258 231 188 175 163 143 139 142 136 132 157 190 203 239 253 279 273 171 136 89
204 215 221 216 222 223 154 176 215 175 160 195 212 254 281 284 282 176 163 224 230 230 228 229 220 231 243 239 242 237 233 237 219 224 184 183 189 178 175 166 151 151 169 187 217 177 128 161 148 91 101 117 85 64
195 184 147 112 101 45 1 356 36 98 121 95 63 18 0 287 328 298 312 308 244 234 241 217 201 282 262 244 236 234 240 244 217 186 178 181 206 197 176 175 182 183 182 210 208 221 237 185 132 123 135 112 48 26
Wind_Speed_850mb
47 38 21 22 21 20 19 23 22 20 18 13 11 4 3 6 5 4 7 9 2 4 9 11 11 12 12 9 7 5 5 4 7 6 5 5 5 7 5 7 7 7 7 4 5 4 12 12 2 5 5 2 16 24
42 34 20 21 19 19 16 21 20 16 15 13 11 8 4 7 10 11 11 11 10 9 9 21 23 21 21 15 19 14 5 9 11 8 1 5 3 3 8 4 1 3 11 7 13 10 4 14 10 11 13 19 20 28
38 20 20 23 18 17 14 19 19 14 14 11 12 11 9 9 12 13 12 12 14 13 20 31 42 35 33 31 22 16 11 14 13 9 14 5 4 7 6 9 5 4 8 4 4 2 16 16 12 14 17 21 20 22
31 23 22 19 18 15 14 17 17 14 13 12 12 12 11 11 12 11 10 13 7 6 6 8 11 15 28 35 25 34 17 25 19 18 8 5 5 13 7 5 8 9 15 8 8 17 16 29 31 18 11 12 22 31
28 25 18 19 19 14 14 14 14 15 14 14 14 13 12 13 13 13 13 12 6 6 6 20 34 30 27 39 34 31 27 30 32 13 5 7 12 9 4 5 5 21 13 9 11 20 13 15 19 30 26 31 37 45
30 28 20 20 18 15 15 11 12 16 17 15 14 15 14 15 13 9 5 3 4 8 10 7 15 25 17 34 47 45 38 35 26 15 11 11 13 21 8 8 15 34 37 36 15 17 18 21 23 30 40 41 40 47
28 30 24 19 16 17 12 9 11 15 16 12 12 15 16 17 13 4 2 3 7 7 6 12 19 11 26 12 39 32 31 21 25 23 16 13 13 22 4 7 10 29 32 29 27 29 26 28 24 25 28 35 42 51
28 34 25 21 20 16 10 8 11 13 11 7 11 15 18 11 4 8 1 8 11 10 3 3 8 13 7 4 6 15 11 8 15 17 10 8 12 3 6 22 23 18 28 35 31 31 29 25 28 26 30 38 46 51
32 37 30 23 22 14 9 8 9 11 7 8 11 11 9 10 3 7 13 7 1 2 2 2 3 6 16 3 4 6 10 4 12 4 10 11 3 7 15 23 18 28 23 25 21 29 32 35 29 26 27 36 39 37
34 40 28 25 22 13 10 9 9 10 6 7 5 4 5 10 13 8 5 4 3 4 3 6 6 5 13 6 6 5 7 1 3 4 5 4 3 24 33 20 25 22 23 25 28 22 25 30 24 19 23 23 32 34
41 31 25 26 19 13 10 12 15 12 6 1 2 4 9 8 4 3 5 3 1 3 7 8 11 6 7 3 4 5 2 3 4 2 3 3 4 8 19 38 23 22 26 28 27 22 21 19 22 18 19 24 30 33
30 25 27 23 16 9 10 19 18 13 7 6 1 6 2 2 3 3 2 0 4 5 7 7 4 7 2 3 6 6 2 3 3 4 1 4 7 12 8 10 16 10 15 22 24 24 22 19 22 17 19 23 26 31
30 27 22 16 10 5 13 11 10 19 12 1 3 3 3 1 8 4 4 5 4 5 10 9 1 3 4 2 6 3 3 6 1 5 3 8 21 15 11 8 21 21 19 23 22 19 18 19 22 20 19 20 18 23
27 18 12 9 9 8 5 9 14 14 6 5 5 3 4 3 7 9 9 7 7 15 16 11 2 5 3 3 2 2 4 3 2 5 6 6 16 8 11 14 24 24 21 17 18 19 20 28 21 20 21 18 11 12
16 8 5 6 10 16 13 10 8 6 1 5 6 6 8 12 14 20 20 17 18 20 15 7 5 5 2 3 2 4 3 4 7 7 7 19 22 25 19 21 24 15 16 19 23 22 25 27 23 29 25 20 10 5
13 17 13 10 8 8 8 6 7 5 3 5 9 4 5 3 9 4 3 11 9 4 14 2 6 3 3 6 4 4 2 5 7 7 18 21 21 21 22 26 24 17 19 15 18 19 21 23 22 21 19 19 17 10
15 8 5 3 5 5 9 7 5 5 5 7 8 11 8 12 11 8 5 4 9 4 3 5 4 2 5 2 3 5 7 8 23 18 15 16 15 16 18 13 24 30 29 25 28 28 28 25 20 19 11 14 20 17
5 1 6 10 6 3 10 6 4 6 9 12 9 5 9 10 10 14 7 7 5 2 5 5 7 4 5 4 5 7 11 12 12 12 10 16 19 7 10 28 26 20 18 17 18 22 22 19 22 17 10 10 13 14
10 11 8 5 3 6 4 6 9 7 12 10 10 14 12 11 13 12 8 12 13 8 8 8 5 5 7 13 14 16 13 13 9 10 8 15 16 6 14 10 17 21 23 20 12 11 16 9 9 11 6 10 6 6
9 2 5 1 5 5 6 7 9 9 9 9 10 11 10 10 14 22 23 20 15 6 6 5 11 13 16 16 17 17 9 9 8 13 11 12 11 4 8 9 15 17 17 17 19 9 8 11 12 15 16 10 12 12
1 3 9 7 7 13 8 7 11 9 7 11 16 20 10 21 23 27 33 23 15 9 9 15 18 17 18 13 16 14 13 15 11 8 10 17 14 11 11 6 10 16 11 17 8 14 6 16 16 12 10 17 20 10
6 7 10 3 4 6 12 16 9 5 9 12 13 21 8 10 19 26 21 15 11 23 19 14 12 19 26 27 21 14 13 15 17 9 7 15 18 17 9 3 5 13 13 12 9 13 12 12 9 16 14 13 11 11
10 8 5 6 6 9 9 12 10 10 8 6 12 9 7 8 9 13 9 12 14 23 27 21 15 18 24 21 23 21 17 14 15 18 13 16 14 13 10 7 9 12 8 10 10 11 10 13 10 10 9 8 11 15
7 6 6 7 12 10 6 9 11 7 5 6 8 7 7 12 11 7 6 10 22 17 25 29 24 20 17 16 23 20 15 13 11 14 20 23 22 22 16 11 7 7 4 7 8 5 7 8 7 6 8 11 12 9
6 8 8 10 10 8 6 6 6 2 7 5 2 5 3 8 4 5 7 10 19 20 24 29 27 21 16 24 19 10 7 12 17 11 14 27 27 29 23 14 9 8 8 3 8 8 18 13 10 14 15 12 7 5
4 9 15 9 7 8 7 4 6 10 5 3 4 8 7 1 3 9 7 13 21 22 29 34 27 21 25 16 15 11 19 15 5 6 13 21 23 23 24 19 16 16 10 11 17 14 11 10 8 11 11 15 12 6
6 11 15 17 13 10 8 11 3 8 3 4 2 5 6 4 7 7 7 14 15 19 23 21 20 17 24 24 12 19 21 12 8 19 20 13 10 10 14 17 20 17 16 14 6 8 11 9 14 7 11 13 9 4
17 11 11 8 9 17 9 5 1 4 5 9 6 4 4 7 7 7 12 12 13 17 16 19 15 14 14 18 21 27 24 21 21 19 19 16 14 14 10 13 17 11 9 12 7 12 16 11 10 10 7 3 4 5
16 18 11 13 12 10 8 10 14 15 21 22 14 7 11 15 37 44 31 23 21 16 22 24 28 23 20 20 17 15 15 23 26 30 29 24 20 18 20 17 17 11 11 10 9 13 11 5 8 9 3 2 2 4
14 24 12 9 7 8 5 6 5 11 19 16 18 16 15 15 9 9 14 27 27 22 20 18 20 27 26 24 25 27 29 28 20 17 28 31 23 24 20 20 21 18 20 23 19 15 11 10 7 7 7 6 2 5
7 9 14 15 11 13 11 4 6 9 23 20 23 22 18 8 10 20 29 18 36 26 24 24 23 27 23 28 30 28 32 34 32 24 27 25 26 25 24 21 22 19 14 10 7 8 10 8 6 4 4 4 5 6
17 22 17 9 8 5 3 5 4 6 9 11 5 6 6 7 5 14 13 14 48 43 31 27 26 24 27 32 29 23 19 16 20 12 20 35 31 26 25 23 18 15 13 13 7 7 5 5 4 10 11 7 4 5
15 11 6 9 6 1 4 8 3 3 6 4 5 6 5 2 5 4 11 16 19 36 38 35 24 5 27 40 40 36 35 24 17 19 19 15 11 20 22 26 18 14 10 13 15 6 3 2 5 5 3 2 5 6
Wind_Direction_850mb
319 319 284 294 305 305 323 328 333 342 352 352 353 325 258 313 335 313 344 3 296 234 215 213 172 175 181 184 149 170 60 353 50 75 123 207 133 223 80 230 174 163 133 208 90 167 260 191 270 197 211 249 313 316
315 311 278 294 297 303 319 325 328 334 346 354 339 340 321 298 302 297 295 312 319 276 243 220 231 249 267 275 208 189 196 163 160 96 147 104 97 127 158 267 113 235 183 187 179 218 172 174 231 261 289 301 319 317
314 285 276 287 289 300 300 320 323 330 337 339 340 339 346 326 302 301 300 291 304 285 274 253 247 257 257 251 248 194 188 185 181 150 151 158 159 129 159 243 166 262 173 199 36 266 207 225 236 250 270 284 314 326
306 265 279 279 281 285 291 314 320 330 315 321 320 330 343 335 321 318 307 291 295 323 309 277 272 256 243 240 232 213 218 183 177 169 129 141 170 191 197 196 166 194 150 184 257 268 249 255 256 233 255 289 305 318
290 258 270 273 278 273 276 302 318 323 316 301 309 310 318 319 321 322 311 256 265 325 284 287 285 272 238 221 218 218 207 187 173 160 148 200 170 142 121 110 247 188 185 166 224 224 213 260 273 237 264 283 291 302
274 247 254 261 270 250 266 295 312 316 315 303 296 301 305 306 316 328 246 228 270 326 308 317 317 304 281 246 224 218 200 189 192 182 195 218 191 167 153 196 239 211 216 232 234 250 263 283 289 272 271 285 291 290
259 239 237 257 248 237 260 284 303 319 317 306 297 297 307 307 313 309 318 236 250 307 277 311 321 336 345 212 186 198 197 221 212 203 205 184 188 188 112 207 200 214 223 225 241 248 271 282 288 305 306 307 304 299
238 230 225 240 224 236 253 277 302 328 322 319 302 313 320 326 76 114 52 338 259 252 276 327 280 336 24 84 71 16 339 353 10 338 345 124 116 179 237 249 247 227 215 227 235 244 260 286 290 302 312 311 306 305
239 221 216 224 212 224 243 264 300 332 320 316 327 340 117 56 52 337 350 355 142 235 90 1 297 286 354 75 90 56 35 32 348 233 216 168 143 212 237 244 250 217 218 239 245 244 255 264 284 299 309 308 306 309
220 202 202 208 209 215 236 263 290 317 308 328 358 47 38 353 5 12 50 69 65 105 209 223 254 274 341 358 68 69 38 65 323 273 276 213 258 270 284 291 307 227 242 240 233 255 259 267 279 295 301 309 315 311
188 179 191 193 206 216 243 271 283 285 251 194 77 37 319 358 19 44 43 50 49 328 210 239 241 265 0 21 103 43 79 281 325 321 114 265 241 303 302 267 292 263 268 254 253 273 278 284 281 285 307 317 314 314
170 178 181 188 206 227 277 288 271 233 178 152 37 307 344 4 57 7 31 179 207 244 199 200 255 240 193 112 114 190 168 207 290 170 329 286 253 322 25 42 356 313 291 263 250 275 273 267 268 277 306 314 312 324
164 168 176 192 206 262 299 283 207 169 182 173 170 207 191 140 36 109 282 276 289 228 207 190 325 203 138 136 93 159 224 248 35 45 259 227 278 280 267 300 318 299 267 262 269 271 262 281 268 272 295 297 309 331
146 158 184 211 237 254 203 142 147 159 180 177 187 304 211 219 233 198 201 208 249 253 263 268 214 169 137 112 132 265 256 18 41 348 253 248 250 260 265 279 299 297 251 265 283 277 266 275 264 269 275 268 286 358
133 146 121 93 154 156 158 150 174 210 299 216 225 218 211 241 267 270 265 272 286 281 245 157 134 164 99 98 29 34 307 273 195 232 239 271 277 268 275 312 321 283 280 306 298 268 279 272 269 270 266 244 217 104
131 120 98 109 134 168 186 205 235 221 248 246 237 267 207 220 290 291 277 267 334 330 165 191 123 139 172 146 176 247 341 247 256 231 284 286 272 279 277 306 310 294 291 282 297 274 279 260 263 268 262 236 203 189
138 133 120 71 10 260 231 227 172 197 234 239 245 231 261 274 269 263 262 24 8 76 147 139 81 254 127 93 286 181 205 229 277 271 269 272 274 296 293 315 352 338 307 262 262 265 276 260 229 226 239 225 210 197
100 68 306 323 340 101 154 183 233 229 247 245 249 247 221 246 269 242 246 224 293 328 176 184 129 99 193 211 252 247 244 273 286 275 270 265 249 246 18 327 326 321 302 295 281 289 276 268 229 217 186 187 209 200
327 317 304 306 199 153 167 236 226 249 240 243 249 249 247 259 251 243 259 239 264 299 171 162 121 195 232 218 226 221 242 244 283 233 257 227 230 226 334 335 331 323 309 322 318 292 262 262 227 150 188 183 186 199
342 24 48 359 183 210 232 221 225 256 249 233 237 243 235 247 257 251 257 259 268 218 180 183 210 221 222 246 238 236 244 232 223 200 231 218 186 236 290 309 351 342 315 323 344 270 228 186 185 185 186 140 109 132
244 271 322 331 209 228 261 229 235 239 242 228 250 234 250 251 244 241 251 260 231 215 220 232 240 248 229 236 220 228 259 264 249 252 253 209 203 226 252 323 347 358 351 1 6 1 112 80 85 121 133 136 135 113
264 296 321 266 249 239 254 222 227 223 227 248 217 199 222 217 229 243 252 214 224 225 210 222 225 230 226 228 234 241 261 248 239 249 200 191 197 218 214 24 2 37 40 44 98 82 37 34 97 132 148 149 140 140
275 285 282 245 247 231 254 216 229 214 190 215 171 184 234 223 222 191 233 232 236 238 223 201 203 226 245 247 237 232 242 251 255 237 208 205 207 183 168 122 65 32 65 97 76 35 68 80 98 138 120 120 135 141
251 261 245 241 226 261 243 225 219 234 228 185 166 218 220 213 178 210 246 244 246 240 216 208 220 235 250 234 209 213 232 266 248 193 222 209 188 168 158 137 101 84 85 126 95 54 140 39 104 155 167 194 168 145
261 230 231 259 240 250 238 250 219 223 248 199 201 315 267 172 164 237 233 260 221 221 209 205 217 239 242 186 184 199 229 210 197 186 217 199 178 166 164 150 134 115 80 91 160 127 128 105 112 108 118 143 159 159
217 218 194 224 242 195 233 268 202 218 207 126 358 342 345 69 246 253 234 231 211 219 210 212 226 202 181 190 183 186 183 181 220 78 147 193 214 193 183 176 168 157 133 90 109 119 142 143 95 122 110 90 95 184
246 261 233 237 258 279 291 274 256 99 109 103 0 27 9 320 255 266 234 206 223 216 204 201 201 191 180 169 140 133 147 130 95 97 96 146 197 262 249 209 181 166 154 156 116 140 118 140 136 132 137 106 107 146
232 251 203 223 248 249 228 223 188 127 126 156 136 90 270 227 246 351 297 268 210 184 158 150 149 136 136 141 124 136 146 154 143 138 142 131 101 92 171 182 172 183 173 167 161 161 140 133 155 137 151 204 286 306
228 224 242 265 261 262 234 212 187 183 174 173 167 182 231 243 254 250 285 206 191 182 166 159 162 156 147 147 144 160 178 183 184 187 190 187 177 151 130 127 114 136 192 179 160 153 160 153 119 149 155 311 35 22
244 229 222 244 209 230 262 221 105 185 191 222 238 241 221 254 277 234 216 210 210 199 188 188 185 184 183 182 185 195 209 221 233 237 211 205 196 170 146 135 132 114 105 106 118 130 151 187 234 278 262 227 242 5
236 180 211 211 224 250 263 244 197 257 266 265 244 236 212 170 175 188 191 186 226 214 194 198 204 203 207 206 208 208 216 222 227 242 258 231 188 175 163 143 139 142 136 132 157 190 203 239 253 279 273 171 136 89
204 215 221 216 222 223 154 176 215 175 160 195 212 254 281 284 282 176 163 224 230 230 228 229 220 231 243 239 242 237 233 237 219 224 184 183 189 178 175 166 151 151 169 187 217 177 128 161 148 91 101 117 85 64
195 184 147 112 101 45 1 356 36 98 121 95 63 18 0 287 328 298 312 308 244 234 241 217 201 282 262 244 236 234 240 244 217 186 178 181 206 197 176 175 182 183 182 210 208 221 237 185 132 123 135 112 48 26